2010 NL
ephemeris date magn radius delta ra dec elong phase
Today5 Sep 202631.02.342 AU3.288 AU09h46m+09°41'17.0°7.2°
2010 NL - 2026-09-05
astro.vanbuitenen.nl


 
-1 year
-1 month
-1 day
Now
+1 day
+1 month
+1 year

The interactive orbit chart above shows the body's path through the solar system and its position at the given date. Green and blue lines are shown perpendicular to the ecliptic plane: Green if the path is above the ecliptic plane, blue if it is below. (Left-click and drag to rotate the view; Right-click and drag to move the view; Use scroll wheel to zoom in our out.)

The orbital elements of 2010 NL are:

            e (Eccentricity)                : 0.4365565
            a (Semimajor axis)              : 1.6765952
            i (Inclination)                 : 8.59854
            Ω (Longitude of ascending node) : 283.22006
            ω (Argument of perihelion)      : 50.98545
            M (Mean anomaly)                : 105.05953
            Epoch                           : 2026 Jun 09

            L (Longitude of perihelion)     : 333.88837
            B (Latitude of perihelion)      : 6.67096
            P (Orbital period in years)     : 2.17            
        

The light curve chart below shows the estimated development of the minor planet's magnitude.


The all-sky chart below shows the path of the minor planet over the same period as the light curve. The current position is marked yellow.





The following chart shows the path of the minor planet in the next few days. The field of view is optimized for (~10x50) binoculars and finderscopes.




Ephemerides:
Date       Time       RA (2000)    DEC (2000)    delta   radius  elong  phase   PA    magn
2026-09-05 00:00 UT   09 46 05.2   +09 41 46     3.288    2.342   17.0    7.2   278   31.0 
2026-09-05 14:02 UT   09 47 01.4   +09 36 01     3.286    2.343   17.3    7.4   278   31.0 
2026-09-06 00:00 UT   09 47 41.2   +09 31 55     3.285    2.344   17.5    7.4   278   31.0 
2026-09-07 00:00 UT   09 49 17.0   +09 22 02     3.283    2.346   18.1    7.7   279   31.0 
2026-09-08 00:00 UT   09 50 52.4   +09 12 07     3.280    2.347   18.6    7.9   279   31.0 
2026-09-09 00:00 UT   09 52 27.6   +09 02 10     3.277    2.349   19.1    8.1   279   31.0 
2026-09-10 00:00 UT   09 54 02.5   +08 52 12     3.274    2.351   19.7    8.3   280   31.0 
2026-09-11 00:00 UT   09 55 37.1   +08 42 12     3.271    2.352   20.2    8.5   280   31.0 
2026-09-12 00:00 UT   09 57 11.4   +08 32 10     3.268    2.354   20.8    8.7   280   31.0 
2026-09-13 00:00 UT   09 58 45.4   +08 22 07     3.264    2.355   21.3    8.9   281   31.0 
2026-09-14 00:00 UT   10 00 19.2   +08 12 02     3.260    2.357   21.9    9.1   281   31.0 
2026-09-15 00:00 UT   10 01 52.6   +08 01 56     3.257    2.358   22.4    9.4   281   31.0 
2026-09-16 00:00 UT   10 03 25.8   +07 51 48     3.253    2.360   23.0    9.6   281   31.1 
2026-09-17 00:00 UT   10 04 58.6   +07 41 39     3.249    2.361   23.5    9.8   282   31.1 
2026-09-18 00:00 UT   10 06 31.2   +07 31 28     3.244    2.363   24.1   10.0   282   31.1 
2026-09-19 00:00 UT   10 08 03.5   +07 21 16     3.240    2.364   24.6   10.2   282   31.1 
2026-09-20 00:00 UT   10 09 35.4   +07 11 03     3.236    2.366   25.2   10.4   282   31.1 
2026-09-21 00:00 UT   10 11 07.1   +07 00 48     3.231    2.367   25.7   10.6   283   31.1 
2026-09-22 00:00 UT   10 12 38.5   +06 50 32     3.226    2.368   26.3   10.8   283   31.1 
2026-09-23 00:00 UT   10 14 09.6   +06 40 15     3.221    2.370   26.9   11.0   283   31.1 
2026-09-24 00:00 UT   10 15 40.4   +06 29 57     3.216    2.371   27.4   11.2   283   31.1 
2026-09-25 00:00 UT   10 17 10.9   +06 19 38     3.211    2.372   28.0   11.4   283   31.1 


    Terminology:
            
    delta:  distance between minor planet and earth in AU
    radius: distance between minor planet and sun in AU
    magn:   magnitude (brightness) estimate    
    ra:     right ascension in hours (24h = 360deg)
    dec:    declination in degrees
    elong:  elongation in degrees (angle sun-earth-minor planet)    
    phase:  phase angle in degrees (angle sun-minor planet-earth)        
    AU:     Astronomical Unit (mean distance between earth and sun: 149597870.7 km
    

Orbital elements provided by the MPC (Minor Planet Center).
Calculations by a modified version of AAPlus, a C# implementation of the AA+ project by PJ Naughter from the algorithms presented in the book "Astronomical Algorithms" by Jean Meeus.
NGC2000 dso catalog and star labels from VizieR as provided by the Strasbourg astronomical Data Center.
Tycho2 catalog from the ESO archive.